Temperature
22 21 20 20 19 19 18 18 18 18 18 18 18 18 18 18 18 18 18 17 17 17 17 17 17 17 17 17 17 17 17 17 17 17 17 17 17 17 17 17 17 17 17
22 21 20 19 19 19 18 18 18 18 18 18 18 18 18 18 18 18 18 17 17 17 17 17 17 17 17 17 16 16 17 17 17 17 17 17 17 17 17 17 17 17 17
22 21 20 19 19 19 18 18 18 18 18 18 18 18 18 18 18 17 17 17 17 17 17 17 17 17 17 17 16 16 17 17 17 17 17 17 18 17 17 17 17 17 17
23 21 20 19 19 19 19 18 18 18 18 18 18 18 18 18 18 18 17 17 17 17 17 17 17 17 16 16 16 16 16 17 17 17 17 17 17 17 17 17 17 17 17
23 22 21 20 19 19 18 18 18 18 18 18 18 18 18 18 18 17 17 17 17 17 16 16 16 16 16 16 16 16 16 17 17 17 18 18 18 18 18 17 17 17 17
24 22 21 20 20 19 19 18 18 18 18 18 18 18 18 18 18 17 17 17 17 17 16 16 16 16 16 16 16 16 16 16 17 17 17 18 18 18 18 18 18 18 17
24 22 21 20 20 19 19 18 18 18 18 18 18 18 18 18 18 17 17 17 17 17 16 16 16 16 16 16 16 16 16 16 16 17 17 17 17 18 18 18 18 18 18
24 23 22 21 20 19 19 18 18 18 18 18 18 18 18 17 17 17 17 17 17 17 17 17 17 16 16 16 16 16 16 16 16 16 16 17 17 17 17 18 18 18 18
25 23 22 21 20 19 19 19 18 18 18 18 18 18 18 17 17 17 17 17 17 17 17 17 17 16 16 16 16 16 16 16 16 16 16 16 17 17 17 17 17 17 18
25 24 22 21 20 20 19 19 18 18 18 18 18 18 18 18 17 17 17 17 17 17 17 17 17 16 16 16 16 16 16 16 16 16 16 16 16 16 16 17 17 17 17
25 24 23 22 21 20 19 19 18 18 18 18 17 17 17 18 17 17 17 17 17 17 17 17 16 16 16 16 16 16 16 16 16 16 16 16 16 16 16 16 16 16 17
25 24 23 22 21 20 20 19 18 18 18 18 17 17 17 17 17 17 17 17 17 17 17 17 16 16 16 16 16 16 16 16 16 16 15 16 16 16 16 16 16 16 16
25 24 23 22 21 21 20 19 19 18 18 17 17 17 17 17 17 17 17 17 17 17 17 16 16 16 16 16 16 16 16 16 16 15 15 15 15 15 15 16 16 16 16
24 23 22 21 21 20 20 19 19 18 18 17 17 17 17 17 17 17 17 17 17 17 16 16 16 16 16 16 16 16 16 16 16 15 15 15 15 15 15 15 15 15 15
24 23 22 21 20 20 20 19 19 18 18 18 17 17 17 17 17 17 17 16 16 16 16 16 16 16 16 16 16 16 15 15 15 15 15 15 15 15 15 15 15 15 15
22 22 21 20 20 19 19 19 19 18 18 18 17 17 17 17 17 16 16 16 16 16 16 16 16 15 15 15 16 16 15 15 15 15 15 15 14 14 14 14 14 14 14
22 21 20 19 19 19 19 18 18 18 18 17 17 17 17 16 16 16 16 16 16 16 16 15 15 15 15 15 15 15 15 15 14 14 14 14 14 14 14 14 14 14 14
20 20 19 19 19 18 18 18 18 17 17 17 17 16 16 16 16 16 15 15 15 15 15 15 15 14 14 14 15 14 14 14 14 13 13 13 13 13 13 13 13 13 13
19 19 18 18 18 18 17 17 17 17 16 16 16 16 16 16 15 15 15 15 14 14 14 14 14 14 13 14 14 14 13 13 13 13 12 12 12 12 12 12 12 12 12
18 18 17 17 17 17 16 16 16 16 15 15 15 15 15 15 14 14 14 14 14 13 13 13 13 13 13 13 13 13 12 12 12 12 11 11 11 11 11 11 11 11 11
17 17 16 16 16 16 16 15 15 15 14 14 14 14 14 14 14 13 13 13 13 13 12 12 12 12 12 12 12 12 12 11 11 11 10 10 10 10 10 10 10 10 10
16 15 15 15 15 15 15 14 14 14 14 14 14 13 13 13 13 13 13 13 12 12 12 11 11 11 11 11 11 11 11 10 10 10 10 9 10 10 9 9 9 9 9
14 14 14 14 14 14 14 14 13 13 13 13 13 13 12 12 12 12 12 12 12 11 11 11 10 10 10 10 10 10 9 9 9 9 9 9 9 9 8 8 8 8 8
13 13 13 13 13 13 13 13 12 12 13 12 12 12 12 12 11 11 11 11 11 11 10 10 10 9 9 9 9 9 9 9 8 9 9 9 8 8 8 8 8 7 7
12 12 12 12 12 12 12 12 12 12 12 12 12 11 11 11 11 11 11 11 10 10 10 10 9 9 9 8 8 8 8 8 8 8 8 8 8 8 7 7 7 7 6
11 11 11 11 11 11 11 11 11 12 12 12 12 11 11 11 11 11 10 10 10 9 9 9 9 8 8 8 8 7 7 7 7 7 7 7 7 6 6 6 6 5 5
Wind_Speed
11 11 12 14 14 12 12 12 11 10 9 7 7 6 5 5 4 5 7 7 6 5 1 3 3 1 2 2 3 2 2 2 1 1 2 3 4 4 3 2 2 5 8
13 13 13 13 13 13 12 12 11 11 10 8 6 6 6 5 5 4 6 7 6 6 5 3 3 3 3 2 1 1 1 3 3 1 2 2 2 2 5 4 3 3 5
15 14 13 13 13 14 14 13 12 11 10 9 7 6 5 3 4 6 5 6 6 5 3 4 1 3 3 4 2 2 2 1 2 2 1 1 1 2 2 3 4 3 2
14 14 13 13 13 14 14 12 12 11 10 10 9 10 8 6 7 6 6 6 6 6 6 4 3 1 1 5 4 4 1 1 2 2 1 1 1 1 2 2 4 5 4
14 14 14 13 13 13 13 12 11 11 11 10 10 9 8 7 6 7 8 7 5 5 6 5 4 2 1 4 1 3 1 1 2 1 2 2 2 2 2 2 3 3 4
13 13 13 12 11 11 12 12 11 10 10 10 10 10 9 8 8 8 8 7 6 5 6 6 5 4 2 4 2 2 3 1 2 2 2 1 2 3 2 2 4 4 4
12 13 13 12 11 11 12 12 12 11 11 10 9 9 9 9 8 8 9 7 7 6 7 7 6 4 3 4 3 2 1 2 1 2 3 3 2 1 1 1 2 2 3
12 13 13 12 11 11 11 12 12 11 11 11 9 8 9 7 7 8 7 7 6 6 9 8 7 5 5 5 4 4 4 3 2 4 2 3 4 2 2 2 1 1 2
12 12 13 13 11 11 10 11 12 12 12 11 9 9 9 8 8 8 7 6 5 6 10 8 8 6 5 4 5 4 3 4 4 4 4 3 4 3 3 2 2 1 2
12 12 12 12 12 12 10 10 11 11 11 10 10 9 9 8 7 7 7 6 5 5 8 7 7 7 6 5 5 4 4 3 4 3 3 3 4 3 2 2 3 2 2
11 11 11 11 11 11 11 10 10 10 10 10 9 8 9 9 8 7 6 6 4 5 6 6 6 6 6 6 6 6 5 6 6 5 5 5 4 4 4 2 3 3 3
11 11 10 10 10 11 11 10 10 10 9 9 8 8 8 8 8 7 6 6 5 5 6 6 5 6 6 6 7 7 6 5 6 6 5 5 5 5 4 4 4 3 2
10 10 9 8 8 8 9 10 10 10 10 9 8 8 8 8 8 7 7 6 6 5 5 5 5 4 4 4 5 5 5 5 6 6 6 5 5 5 4 4 4 4 4
9 10 9 7 6 6 6 8 9 9 9 8 8 8 7 7 7 7 6 5 5 5 4 4 3 3 2 2 3 4 5 5 5 5 4 4 4 4 4 4 4 4 4
10 9 9 8 7 6 6 6 7 8 8 9 8 8 7 6 6 6 6 6 5 5 4 4 2 1 1 2 2 3 5 4 4 3 2 3 2 2 2 3 2 3 3
10 9 9 9 7 6 6 6 6 7 7 8 8 7 7 7 6 6 6 5 5 4 4 4 4 4 3 5 4 2 1 1 1 2 2 2 2 1 1 2 2 2 4
10 9 9 8 7 7 6 7 7 7 7 6 6 7 7 6 5 6 6 5 5 5 5 6 7 6 6 8 7 6 2 3 3 3 2 2 4 5 3 3 3 4 4
9 9 9 8 8 8 8 8 8 8 8 7 6 6 7 7 7 7 7 7 7 7 8 8 8 7 9 10 9 7 3 4 4 5 5 4 5 6 6 5 4 3 2
9 9 9 9 9 9 10 11 11 10 10 9 8 8 8 9 9 10 9 8 9 9 9 9 9 9 10 13 12 8 4 5 6 6 7 6 5 8 9 5 5 4 4
10 9 10 12 12 11 11 12 11 11 11 11 11 11 10 10 11 11 10 9 9 9 9 10 10 10 10 13 14 10 5 5 5 5 6 10 8 9 10 6 5 5 5
11 11 12 12 12 12 12 13 12 12 11 12 12 12 12 12 11 10 9 10 10 10 9 10 9 9 9 11 13 12 7 5 4 4 4 4 7 7 7 6 3 4 5
12 13 13 13 12 12 14 14 12 11 11 12 13 12 10 10 11 9 9 9 8 9 8 8 8 7 8 9 10 11 10 8 5 4 3 3 4 5 6 4 5 7 7
12 12 14 14 13 12 12 14 11 11 12 13 12 12 12 10 9 9 8 7 5 6 6 6 7 7 7 7 9 8 8 8 5 4 5 5 5 6 4 5 7 7 4
12 13 14 15 13 12 13 13 12 11 12 13 11 10 11 11 11 9 9 9 8 7 7 7 7 7 7 7 7 6 6 7 6 5 6 8 7 6 6 4 2 2 3
12 13 14 14 14 12 12 12 11 10 11 11 11 11 12 12 11 11 10 10 10 9 8 8 7 7 6 6 7 6 6 6 6 7 5 3 2 2 3 4 4 5 5
12 13 14 14 13 13 12 10 9 8 8 8 8 9 9 9 10 10 11 16 12 14 16 13 10 7 6 4 7 9 9 10 10 7 5 5 6 7 7 7 7 7 7
Wind_Direction
147 143 149 152 154 156 159 162 165 164 164 167 166 162 158 155 149 144 144 156 151 147 223 119 149 250 103 114 140 135 162 221 212 176 160 180 189 176 165 200 177 178 180
150 149 152 160 163 164 166 167 172 169 168 170 171 168 162 167 154 139 145 153 151 159 177 131 176 140 120 114 105 127 212 217 176 174 175 185 178 209 185 170 179 176 173
159 159 164 168 170 170 172 175 174 172 172 170 168 164 153 165 140 141 157 161 159 171 130 138 149 139 176 150 187 203 237 247 177 192 236 144 176 179 161 186 147 152 167
158 161 167 172 176 174 173 172 170 172 173 175 177 170 172 175 166 162 157 159 168 167 149 154 131 150 110 140 201 177 234 259 254 186 162 172 104 144 151 203 164 179 182
160 163 170 176 177 175 173 170 170 174 177 181 182 184 179 174 166 157 151 163 170 174 161 158 150 175 198 134 133 122 248 261 273 292 201 186 180 243 183 186 176 190 178
159 162 167 170 172 173 170 169 168 176 180 182 184 192 185 180 168 160 160 173 167 181 170 162 156 186 174 130 145 146 201 307 341 344 324 204 202 231 221 186 198 194 185
159 162 168 170 173 175 172 172 171 175 180 183 188 192 188 182 173 171 172 184 176 179 173 170 165 188 153 150 167 187 231 204 274 311 310 323 309 304 320 267 233 189 177
159 162 166 166 171 175 174 174 174 175 179 182 187 187 180 181 180 185 181 194 193 178 163 162 170 187 174 181 173 202 203 182 206 255 284 322 311 327 308 303 323 274 214
153 161 164 166 170 175 177 178 175 176 182 184 182 181 182 190 185 178 190 195 192 167 159 165 172 185 185 196 170 231 214 158 200 241 219 240 278 270 291 311 314 306 296
154 158 162 166 170 173 173 172 172 178 181 182 183 183 183 191 186 181 190 191 184 161 156 166 174 184 183 193 198 234 208 193 215 245 259 230 280 276 247 261 283 287 289
149 152 158 164 168 170 171 170 170 172 178 182 185 180 179 184 184 187 186 182 179 163 169 176 179 188 190 191 200 237 213 201 220 233 228 220 257 301 314 278 256 256 255
144 146 148 153 164 169 171 172 172 175 178 180 179 180 177 177 181 185 182 179 178 182 184 186 188 199 200 196 201 226 231 213 220 229 234 225 230 224 262 299 295 284 278
139 138 141 146 156 163 167 171 174 176 177 177 176 175 175 177 180 181 178 177 183 192 192 187 189 199 210 206 212 222 243 238 232 228 227 227 239 237 237 244 275 291 283
138 139 137 137 138 144 152 160 166 168 171 170 170 172 175 176 175 172 166 167 179 181 181 173 169 176 201 231 238 232 238 246 249 244 240 237 232 232 240 251 254 271 287
141 136 134 130 130 133 139 141 153 159 163 162 168 174 172 164 159 159 157 162 170 177 167 157 154 137 107 353 299 259 246 240 248 258 259 262 259 240 240 262 278 282 279
141 136 132 130 130 132 135 135 138 145 152 158 165 161 159 158 157 157 159 155 149 142 129 123 108 82 48 12 23 12 319 357 345 323 324 306 354 336 225 267 293 295 285
137 130 124 124 125 125 126 128 126 127 132 137 141 143 146 144 143 146 133 129 126 115 101 90 84 77 44 29 35 37 29 41 37 24 17 355 22 16 355 320 284 266 252
126 122 122 123 125 123 121 116 114 113 112 107 108 115 116 117 113 107 104 99 93 91 85 80 76 69 41 31 33 30 50 57 51 46 44 54 34 10 359 340 332 328 328
111 113 116 118 113 111 109 105 100 98 94 90 88 95 106 108 104 99 94 90 89 86 85 82 77 70 46 33 31 29 58 67 63 59 48 47 43 20 14 7 360 355 348
98 107 109 107 101 99 101 100 96 92 88 87 85 84 89 96 97 97 97 96 95 94 90 82 75 71 58 39 36 29 50 61 65 74 67 54 47 35 25 16 6 359 351
97 98 100 99 99 99 97 94 91 89 88 88 88 86 88 90 91 92 98 99 98 96 94 92 85 77 70 55 46 40 43 36 42 58 65 56 40 28 15 1 349 329 318
98 97 96 96 96 98 99 96 93 94 93 91 89 89 88 90 93 93 93 98 107 109 105 103 98 86 72 56 49 45 40 25 34 36 45 47 6 348 333 325 316 316 314
95 95 96 96 92 91 96 99 98 98 96 92 89 86 83 80 84 90 93 96 97 100 101 99 94 86 70 52 36 29 26 17 22 18 357 325 299 303 297 268 286 304 315
98 97 94 95 94 92 93 94 95 95 96 95 94 91 86 77 64 61 59 57 53 63 71 67 72 75 63 38 18 8 17 12 16 360 322 297 277 282 302 311 294 305 356
100 98 97 96 94 92 91 93 95 97 100 100 98 93 87 85 76 67 57 66 56 61 69 63 59 57 54 25 9 10 5 356 352 331 307 316 6 2 6 5 12 12 11
104 103 101 99 97 93 90 88 90 93 99 106 108 109 108 106 104 98 80 56 65 67 72 73 79 82 71 21 5 360 346 336 338 338 345 20 22 16 12 7 5 9 12
Height
1475 1477 1480 1484 1488 1492 1496 1500 1505 1508 1511 1515 1519 1522 1526 1529 1532 1534 1536 1538 1541 1542 1544 1546 1546 1548 1549 1550 1552 1553 1554 1556 1557 1559 1560 1561 1561 1562 1563 1564 1565 1566 1567
1473 1477 1480 1484 1487 1490 1494 1499 1503 1506 1510 1514 1518 1522 1525 1528 1531 1533 1535 1537 1540 1542 1544 1545 1546 1547 1548 1550 1551 1552 1554 1555 1557 1558 1559 1560 1562 1561 1562 1563 1564 1565 1566
1471 1476 1480 1483 1486 1489 1492 1497 1500 1505 1509 1513 1517 1521 1524 1527 1530 1532 1534 1536 1539 1541 1543 1544 1546 1546 1548 1549 1550 1551 1553 1555 1556 1557 1559 1559 1559 1561 1562 1563 1563 1564 1565
1470 1474 1478 1482 1485 1488 1492 1495 1499 1503 1506 1511 1515 1518 1521 1524 1527 1530 1533 1535 1537 1539 1541 1543 1544 1545 1547 1548 1549 1551 1552 1554 1555 1557 1557 1559 1559 1560 1561 1562 1562 1563 1564
1468 1473 1477 1481 1485 1488 1491 1494 1497 1501 1504 1508 1512 1516 1519 1523 1526 1529 1531 1534 1536 1538 1540 1542 1543 1544 1546 1547 1548 1549 1551 1553 1554 1555 1557 1558 1558 1559 1560 1561 1562 1562 1563
1466 1471 1476 1480 1483 1487 1490 1492 1495 1498 1502 1506 1510 1513 1517 1520 1524 1526 1529 1532 1534 1537 1539 1540 1542 1544 1545 1546 1547 1548 1550 1551 1552 1553 1555 1556 1557 1558 1559 1559 1560 1560 1561
1465 1470 1474 1478 1481 1485 1487 1490 1493 1496 1500 1504 1507 1511 1515 1518 1521 1524 1527 1530 1533 1535 1537 1539 1540 1542 1544 1545 1546 1547 1549 1550 1551 1552 1553 1554 1556 1557 1557 1558 1558 1559 1560
1463 1468 1472 1476 1480 1483 1486 1488 1491 1494 1497 1501 1505 1508 1512 1515 1519 1522 1525 1528 1531 1533 1535 1537 1539 1541 1542 1544 1545 1547 1547 1548 1549 1551 1552 1553 1554 1555 1556 1557 1557 1557 1558
1461 1466 1470 1474 1478 1481 1483 1486 1489 1492 1495 1498 1502 1506 1509 1513 1516 1520 1523 1527 1529 1532 1533 1535 1537 1539 1541 1542 1544 1545 1546 1547 1548 1549 1550 1551 1553 1554 1554 1555 1555 1556 1556
1459 1464 1468 1472 1475 1479 1482 1484 1487 1489 1492 1496 1500 1503 1506 1510 1514 1517 1520 1524 1527 1530 1531 1533 1535 1537 1539 1540 1542 1543 1545 1546 1546 1547 1548 1549 1550 1552 1553 1553 1554 1554 1554
1457 1462 1467 1471 1474 1477 1480 1483 1485 1488 1491 1494 1497 1501 1504 1507 1511 1515 1518 1521 1524 1527 1529 1531 1534 1535 1537 1539 1540 1541 1543 1544 1544 1545 1546 1547 1548 1549 1550 1551 1552 1552 1552
1456 1461 1465 1469 1473 1476 1479 1481 1484 1487 1489 1492 1495 1499 1502 1505 1508 1512 1515 1518 1521 1524 1527 1529 1531 1533 1535 1537 1538 1540 1541 1542 1543 1543 1544 1544 1545 1546 1547 1547 1548 1549 1549
1455 1460 1464 1468 1472 1475 1478 1480 1483 1485 1488 1491 1494 1497 1499 1502 1506 1509 1513 1516 1519 1522 1524 1527 1529 1531 1533 1534 1536 1537 1538 1539 1540 1541 1541 1542 1543 1543 1544 1544 1545 1545 1546
1455 1459 1463 1467 1470 1473 1476 1479 1482 1485 1487 1490 1493 1495 1498 1500 1504 1507 1511 1514 1517 1519 1522 1524 1526 1528 1529 1531 1533 1534 1535 1536 1537 1538 1538 1539 1539 1540 1540 1541 1541 1541 1542
1455 1459 1463 1466 1470 1473 1476 1478 1481 1484 1486 1489 1491 1494 1496 1499 1502 1505 1508 1511 1515 1517 1519 1521 1523 1525 1527 1528 1529 1531 1532 1533 1534 1534 1535 1536 1536 1536 1537 1537 1537 1538 1538
1455 1459 1462 1465 1469 1472 1475 1478 1481 1483 1486 1488 1490 1493 1495 1498 1500 1503 1506 1510 1512 1515 1517 1519 1521 1522 1524 1525 1526 1528 1529 1530 1530 1531 1531 1532 1532 1532 1532 1533 1533 1534 1534
1455 1459 1462 1465 1468 1472 1475 1478 1480 1483 1485 1487 1490 1492 1495 1497 1500 1502 1505 1508 1510 1513 1515 1517 1518 1520 1521 1522 1523 1524 1525 1526 1527 1527 1527 1528 1528 1528 1528 1528 1528 1529 1529
1455 1458 1462 1465 1469 1472 1475 1478 1480 1482 1485 1487 1489 1491 1494 1496 1499 1502 1504 1507 1510 1512 1513 1515 1517 1518 1519 1520 1521 1522 1522 1523 1524 1524 1524 1524 1524 1524 1524 1524 1523 1523 1523
1455 1458 1462 1466 1469 1473 1475 1478 1480 1483 1485 1487 1489 1491 1494 1496 1498 1501 1503 1506 1509 1510 1512 1514 1516 1517 1518 1518 1519 1520 1520 1521 1521 1521 1521 1521 1521 1521 1520 1520 1519 1519 1519
1456 1460 1463 1466 1470 1473 1476 1479 1482 1484 1486 1489 1490 1492 1494 1496 1498 1501 1503 1506 1508 1510 1512 1514 1515 1516 1517 1518 1518 1519 1519 1519 1520 1520 1519 1519 1519 1518 1517 1517 1516 1515 1515
1459 1462 1465 1468 1471 1475 1478 1480 1483 1486 1488 1491 1492 1494 1496 1498 1500 1502 1504 1507 1510 1512 1513 1514 1516 1517 1517 1518 1518 1518 1519 1519 1519 1519 1518 1518 1517 1516 1515 1514 1513 1512 1512
1462 1465 1467 1470 1474 1477 1480 1482 1486 1488 1491 1493 1495 1497 1499 1501 1503 1505 1507 1509 1511 1513 1515 1516 1517 1518 1518 1519 1518 1519 1519 1519 1519 1518 1517 1517 1516 1515 1514 1513 1512 1511 1510
1465 1468 1470 1474 1477 1480 1483 1485 1489 1492 1494 1496 1498 1500 1502 1504 1507 1509 1510 1512 1514 1516 1517 1519 1519 1519 1519 1519 1519 1519 1519 1518 1518 1517 1517 1516 1515 1514 1513 1512 1511 1510 1508
1469 1471 1474 1477 1481 1484 1486 1489 1493 1495 1497 1499 1501 1504 1506 1508 1510 1512 1513 1514 1516 1518 1519 1520 1521 1520 1520 1520 1519 1519 1518 1517 1517 1516 1516 1515 1515 1514 1513 1512 1510 1509 1508
1473 1475 1478 1481 1485 1488 1491 1494 1496 1499 1501 1503 1505 1507 1509 1511 1513 1515 1516 1517 1518 1519 1520 1521 1521 1521 1520 1520 1519 1519 1518 1517 1516 1516 1515 1515 1514 1513 1512 1511 1510 1508 1506
1477 1480 1483 1486 1489 1492 1495 1498 1501 1503 1505 1507 1509 1511 1513 1514 1516 1517 1518 1520 1521 1522 1522 1522 1522 1522 1522 1521 1520 1519 1518 1517 1517 1516 1516 1515 1514 1513 1512 1510 1509 1507 1505